This is the latest recevied weather packets stored in our database for station/object KC5CAM-13. If no packets are shown the sender has not sent any weather packets the latest 10 day(s).
| Time | Temp. | Humidity | Pressure | Rain* | Wind** | Luminosity | Snow |
|---|---|---|---|---|---|---|---|
| 1777565152 | 17.22° C | 84% | 1017.1 hPa | 0 mm | - | 112 W/m² | - |
| 1777564849 | 17.22° C | 84% | 1017.1 hPa | 0 mm | - | 111 W/m² | - |
| 1777564544 | 17.22° C | 84% | 1017.5 hPa | 0 mm | - | 69 W/m² | - |
| 1777564239 | 16.67° C | 85% | 1017.4 hPa | 0 mm | - | 58 W/m² | - |
| 1777563936 | 16.67° C | 85% | 1017.6 hPa | 0 mm | - | 58 W/m² | - |
| 1777563633 | 16.67° C | 85% | 1017.8 hPa | 0 mm | - | 48 W/m² | - |
| 1777563333 | 16.67° C | 85% | 1017.5 hPa | 0 mm | - | 49 W/m² | - |
| 1777563029 | 16.67° C | 85% | 1017.4 hPa | 0 mm | - | 58 W/m² | - |
| 1777562725 | 16.67° C | 85% | 1017.4 hPa | 0 mm | - | 55 W/m² | - |
| 1777562423 | 17.22° C | 85% | 1017.4 hPa | 0 mm | - | 64 W/m² | - |
| 1777562120 | 17.22° C | 85% | 1016.8 hPa | 0 mm | - | 72 W/m² | - |
| 1777561818 | 17.22° C | 85% | 1016.6 hPa | 0 mm | - | 80 W/m² | - |
| 1777561514 | 17.22° C | 84% | 1016.7 hPa | 0 mm | - | 90 W/m² | - |
| 1777561210 | 17.22° C | 84% | 1016.7 hPa | 0 mm | - | 147 W/m² | - |
| 1777560909 | 17.22° C | 84% | 1016.9 hPa | 0 mm | - | 151 W/m² | - |
| 1777560606 | 17.22° C | 85% | 1016.6 hPa | 0 mm | - | 184 W/m² | - |
| 1777560305 | 17.22° C | 86% | 1016.5 hPa | 0 mm | - | 188 W/m² | - |
| 1777560002 | 16.67° C | 86% | 1016.3 hPa | 0 mm | - | 167 W/m² | - |
| 1777559702 | 16.67° C | 86% | 1016.6 hPa | 0 mm | - | 177 W/m² | - |
| 1777559400 | 16.67° C | 87% | 1015.6 hPa | 0 mm | - | 162 W/m² | - |
| 1777559096 | 16.11° C | 87% | 1015.6 hPa | 0 mm | - | 141 W/m² | - |
| 1777558791 | 16.11° C | 87% | 1015.6 hPa | 0 mm | - | 127 W/m² | - |
| 1777558487 | 16.11° C | 87% | 1015.5 hPa | 0 mm | - | 103 W/m² | - |
| 1777558184 | 16.11° C | 87% | 1015.5 hPa | 0 mm | - | 101 W/m² | - |
| 1777557880 | 16.11° C | 87% | 1015.6 hPa | 0 mm | - | 122 W/m² | - |
* Rain latest hour (hover to see other rain measurements)
** Current wind speed in m/s (hover to see current wind gust speed)